Tracking 28790 objects as of 18-Apr-2024
HD Live streaming from Space Station
objects crossing your sky now

ATLAS 5 CENTAUR R/B

Track ATLAS 5 CENTAUR R/B now!


NORAD ID: 40295
Int'l Code: 2014-068B
Perigee: 20,643.4 km
Apogee: 21,336.4 km
Inclination: 56.6 °
Period: 750.7 minutes
Semi major axis: 27360 km
RCS: Unknown
Launch date: October 29, 2014
Source: United States (US)
Launch site: AIR FORCE EASTERN TEST RANGE (AFETR)

Note: This is a ROCKET BODY
Your satellite tracking list
Your tracking list is empty




NASA's NSSDC Master Catalog

Two Line Element Set (TLE):
1 40295U 14068B   24108.71412253 -.00000006  00000-0  00000+0 0  9995
2 40295  56.5808  74.5108 0126636 340.7736  18.7314  1.91825649 66352
Source of the keplerian elements: AFSPC